Flag for Kazakhstan Weather past 2 weeks in Shymkent, Kazakhstan

Now
32 °F

Clear.


Feels Like: 26 °F
Forecast: 26 / 46 °F
Wind: 6 mph from Southeast

Location: Shymkent Airport

Current Time: Dec 22, 2014 at 9:06:03 AM

Latest Report: Dec 22, 2014 at 8:30 AM


Visibility: 10 mi

Pressure: 30.01 "Hg

Humidity: 80%

Dew point: 27 °F

Location of ShymkentLocation

Historic Weather in Shymkent — Graph

°F

Shymkent temperature yesterday

Maximum temperature yesterday: 48 °F (at 1:00 PM)
Minimum temperature yesterday: 34 °F (at 7:00 AM)
Average temperature yesterday: 40 °F

Past Weeks' High & Low Weather Summary

 TemperatureHumidityPressure
High48 °F (Dec 20, 2:00 PM)87% (Dec 20, 2:00 AM)30.98 "Hg (Dec 20, 2:00 AM)
Low3 °F (Dec 8, 4:00 AM)29% (Dec 15, 3:30 PM)30.01 "Hg (Dec 22, 5:00 AM)
Average27 °F67%30.41 "Hg
* Reported Dec 7 8:00 AM — Dec 22 8:00 AM, Shymkent, Weather by CustomWeather, © 2014

Note: Actual official high and low records may vary slightly from our data, if they occured in-between our weather recording intervals... More about our weather records

Advertising

Shymkent weather history for previous 24 hours

 ConditionsComfort  
Time TempWeatherWind HumidityBarometerVisibility
8:00 AM
Dec 22
32 °FClear.8 mph80%30.01 "Hg5 mi
7:30 AM34 °FClear.6 mph75%30.01 "Hg5 mi
7:00 AM32 °FClear.8 mph80%30.01 "Hg5 mi
6:30 AM32 °FClear.3 mph80%30.01 "Hg5 mi
6:00 AM34 °FFog.8 mph81%30.01 "Hg3 mi
5:30 AM36 °FFog.6 mph75%30.01 "Hg3 mi
5:00 AM36 °FFog.6 mph81%30.01 "Hg3 mi
4:30 AM36 °FFog.6 mph81%30.04 "Hg2 mi
3:30 AM32 °FIce fog.6 mph87%30.04 "Hg2 mi
3:00 AM34 °FFog.8 mph81%30.04 "Hg2 mi
2:30 AM34 °FFog.10 mph81%30.04 "Hg2 mi
2:00 AM34 °FFog.8 mph81%30.04 "Hg2 mi
1:30 AM34 °FFog.6 mph81%30.07 "Hg2 mi
1:00 AM34 °FFog.3 mph81%30.07 "Hg2 mi
12:30 AM34 °FFog.6 mph87%30.07 "Hg2 mi
12:00 AM34 °FFog.3 mph87%30.07 "Hg2 mi
11:30 PM
Dec 21
36 °FFog.8 mph81%30.07 "Hg2 mi
11:00 PM34 °FFog.3 mph81%30.07 "Hg1 mi
10:30 PM36 °FFog.6 mph87%30.07 "Hg1 mi
10:00 PM36 °FFog.3 mph87%30.07 "Hg1 mi
9:30 PM37 °FFog.3 mph81%30.09 "Hg1 mi
9:00 PM37 °FFog.3 mph87%30.09 "Hg1 mi
8:30 PM39 °FFog.3 mph81%30.09 "Hg1 mi
8:00 PM41 °FFog.3 mph81%30.09 "Hg2 mi
7:30 PM39 °FFog.1 mph87%30.09 "Hg3 mi
7:00 PM41 °FMostly cloudy.1 mph81%30.09 "Hg4 mi
6:30 PM43 °FSprinkles. Mostly cloudy.3 mph81%30.09 "Hg5 mi
6:00 PM43 °FMostly cloudy.3 mph81%30.07 "Hg5 mi
5:30 PM43 °FMore clouds than sun.6 mph81%30.07 "Hg5 mi
5:00 PM45 °FSprinkles. More clouds than sun.13 mph76%30.07 "Hg5 mi
4:30 PM45 °FMore clouds than sun.3 mph71%30.07 "HgN/A
4:00 PM45 °FMore clouds than sun.1 mph71%30.07 "HgN/A
3:30 PM48 °FMore clouds than sun.10 mph62%30.09 "HgN/A
3:00 PM48 °FMore clouds than sun.10 mph62%30.09 "HgN/A
2:30 PM48 °FSunny.10 mph58%30.09 "Hg10 mi
2:00 PM46 °FSunny.8 mph62%30.09 "Hg10 mi
1:30 PM48 °FSunny.8 mph62%30.09 "Hg10 mi
1:00 PM48 °FSunny.8 mph58%30.09 "Hg10 mi
12:30 PM45 °FMore clouds than sun.6 mph61%30.12 "Hg4 mi
12:00 PM43 °FMore clouds than sun.3 mph66%30.12 "Hg4 mi
11:30 AM41 °FMore clouds than sun.3 mph70%30.12 "Hg4 mi
11:00 AM39 °FMore clouds than sun.6 mph75%30.12 "Hg4 mi
10:30 AM37 °FMore clouds than sun.6 mph75%30.12 "Hg4 mi
10:00 AM36 °FMore clouds than sun.No wind87%30.12 "Hg4 mi
9:30 AM36 °FMore clouds than sun.1 mph81%30.09 "Hg5 mi
9:00 AM36 °FMore clouds than sun.8 mph81%30.09 "Hg5 mi
Weather by CustomWeather, © 2014

See weather overviewHow to use our weather pages